When you browse on this site, cookies collect data to enhance your experience and personalize the content and advertising you see.
Visit our Privacy Policy to learn more. By continuing to use the site, you agree to this use of cookies and data.
  • In Spain
  • List of Countries
  • For 7 days
  • Water Temperature
  • Weather Map
  • Weather Widgets
  • user-avatar
    Login

    Hourly Weather Vigo

    Today, 2 June, Tuesday

    Time Temperature Precipitation Wind Pressure Humidity
    00:00 +19°C° 0 mm 1 mps 754 mmHg 92%
    01:00 +19°C° 0 mm 1 mps 753 mmHg 92%
    02:00 +19°C° 0 mm 1 mps 753 mmHg 92%
    03:00 +19°C° 0 mm 1 mps 753 mmHg 92%
    04:00 +20°C° 0 mm 1 mps 753 mmHg 91%
    05:00 +20°C° 0 mm 1 mps 753 mmHg 90%
    06:00 +22°C° 0 mm 1 mps 753 mmHg 81%
    07:00 +25°C° 0 mm 1 mps 754 mmHg 72%
    08:00 +27°C° 0 mm 1 mps 754 mmHg 63%
    09:00 +28°C° 0 mm 1 mps 754 mmHg 59%
    10:00 +28°C° 0 mm 1 mps 754 mmHg 55%
    11:00 +29°C° 0 mm 2 mps 754 mmHg 51%
    12:00 +28°C° 0.3 mm 2 mps 754 mmHg 57%
    13:00 +27°C° 0.3 mm 2 mps 753 mmHg 62%
    14:00 +26°C° 0.3 mm 2 mps 753 mmHg 67%
    15:00 +25°C° 0.1 mm 2 mps 753 mmHg 68%
    16:00 +25°C° 0.1 mm 2 mps 753 mmHg 69%
    17:00 +24°C° 0.1 mm 1 mps 753 mmHg 71%
    18:00 +22°C° 0 mm 1 mps 754 mmHg 78%
    19:00 +20°C° 0 mm 1 mps 754 mmHg 86%
    20:00 +19°C° 0 mm 1 mps 754 mmHg 94%
    21:00 +18°C° 0 mm 1 mps 754 mmHg 95%
    22:00 +18°C° 0 mm 1 mps 754 mmHg 95%
    23:00 +18°C° 0 mm 1 mps 754 mmHg 96%

    Tomorrow, 3 June, Wednesday

    Time Temperature Precipitation Wind Pressure Humidity
    00:00 +18°C° 0 mm 1 mps 753 mmHg 96%
    01:00 +16°C° 0 mm 1 mps 753 mmHg 97%
    02:00 +15°C° 0 mm 0 mps 753 mmHg 98%
    03:00 +15°C° 0 mm 0 mps 753 mmHg 97%
    04:00 +16°C° 0 mm 0 mps 752 mmHg 96%
    05:00 +16°C° 0 mm 0 mps 752 mmHg 96%
    06:00 +20°C° 0 mm 1 mps 752 mmHg 88%
    07:00 +22°C° 0 mm 1 mps 753 mmHg 80%
    08:00 +24°C° 0 mm 1 mps 753 mmHg 72%
    09:00 +24°C° 0 mm 2 mps 753 mmHg 69%
    10:00 +24°C° 0 mm 2 mps 752 mmHg 67%
    11:00 +25°C° 0 mm 3 mps 752 mmHg 64%
    12:00 +25°C° 0.1 mm 3 mps 752 mmHg 65%
    13:00 +24°C° 0.1 mm 3 mps 752 mmHg 66%
    14:00 +24°C° 0.1 mm 3 mps 751 mmHg 67%
    15:00 +22°C° 0 mm 3 mps 751 mmHg 71%
    16:00 +21°C° 0 mm 3 mps 751 mmHg 75%
    17:00 +21°C° 0 mm 2 mps 751 mmHg 79%
    18:00 +19°C° 0 mm 2 mps 751 mmHg 84%
    19:00 +18°C° 0 mm 2 mps 751 mmHg 89%
    20:00 +18°C° 0 mm 1 mps 752 mmHg 95%
    21:00 +16°C° 0 mm 2 mps 752 mmHg 94%
    22:00 +16°C° 0 mm 2 mps 752 mmHg 94%
    23:00 +15°C° 0 mm 2 mps 752 mmHg 94%

    Day after tomorrow, 4 June, Thursday

    Time Temperature Precipitation Wind Pressure Humidity
    00:00 +14°C° 0 mm 2 mps 751 mmHg 94%
    01:00 +14°C° 0 mm 2 mps 751 mmHg 94%
    02:00 +13°C° 0 mm 2 mps 751 mmHg 94%
    03:00 +13°C° 0 mm 2 mps 751 mmHg 92%
    04:00 +13°C° 0 mm 2 mps 751 mmHg 91%
    05:00 +13°C° 0 mm 2 mps 751 mmHg 90%
    06:00 +15°C° 0 mm 2 mps 751 mmHg 81%
    07:00 +17°C° 0 mm 2 mps 751 mmHg 72%
    08:00 +19°C° 0 mm 3 mps 752 mmHg 63%
    09:00 +20°C° 0 mm 3 mps 752 mmHg 57%
    10:00 +22°C° 0 mm 4 mps 752 mmHg 52%
    11:00 +23°C° 0 mm 4 mps 752 mmHg 46%
    12:00 +23°C° 0 mm 5 mps 752 mmHg 47%
    13:00 +23°C° 0 mm 5 mps 752 mmHg 49%
    14:00 +23°C° 0 mm 6 mps 752 mmHg 50%
    15:00 +23°C° 0 mm 5 mps 752 mmHg 53%
    16:00 +22°C° 0 mm 5 mps 752 mmHg 55%
    17:00 +22°C° 0 mm 5 mps 752 mmHg 58%
    18:00 +20°C° 0 mm 5 mps 753 mmHg 67%
    19:00 +18°C° 0 mm 4 mps 753 mmHg 75%
    20:00 +14°C° 0 mm 4 mps 754 mmHg 84%
    21:00 +14°C° 0 mm 4 mps 754 mmHg 86%
    22:00 +13°C° 0 mm 4 mps 754 mmHg 89%
    23:00 +12°C° 0 mm 4 mps 754 mmHg 92%

    5 June, Friday

    Time Temperature Precipitation Wind Pressure Humidity
    00:00 +12°C° 0 mm 3 mps 754 mmHg 93%
    01:00 +12°C° 0 mm 3 mps 754 mmHg 94%
    02:00 +11°C° 0 mm 3 mps 754 mmHg 95%
    03:00 +11°C° 0 mm 3 mps 754 mmHg 93%
    04:00 +12°C° 0 mm 3 mps 754 mmHg 92%
    05:00 +13°C° 0 mm 2 mps 753 mmHg 91%
    06:00 +16°C° 0 mm 2 mps 754 mmHg 79%
    07:00 +18°C° 0 mm 2 mps 754 mmHg 67%
    08:00 +21°C° 0 mm 2 mps 754 mmHg 55%
    09:00 +24°C° 0 mm 3 mps 754 mmHg 49%
    10:00 +25°C° 0 mm 3 mps 754 mmHg 43%
    11:00 +27°C° 0 mm 3 mps 754 mmHg 37%
    12:00 +27°C° 0 mm 3 mps 753 mmHg 39%
    13:00 +26°C° 0 mm 4 mps 753 mmHg 41%
    14:00 +26°C° 0 mm 4 mps 753 mmHg 43%
    15:00 +25°C° 0 mm 4 mps 753 mmHg 47%
    16:00 +23°C° 0 mm 4 mps 752 mmHg 52%
    17:00 +22°C° 0 mm 3 mps 752 mmHg 56%
    18:00 +20°C° 0 mm 3 mps 753 mmHg 66%
    19:00 +18°C° 0 mm 3 mps 753 mmHg 75%
    20:00 +14°C° 0 mm 3 mps 753 mmHg 85%
    21:00 +14°C° 0 mm 3 mps 753 mmHg 87%
    22:00 +13°C° 0 mm 3 mps 753 mmHg 89%
    23:00 +13°C° 0 mm 3 mps 753 mmHg 91%

    6 June, Saturday

    Time Temperature Precipitation Wind Pressure Humidity
    00:00 +13°C° 0 mm 2 mps 753 mmHg 92%
    01:00 +13°C° 0 mm 2 mps 752 mmHg 93%
    02:00 +13°C° 0 mm 2 mps 752 mmHg 95%
    03:00 +13°C° 0 mm 2 mps 752 mmHg 94%
    04:00 +13°C° 0 mm 2 mps 752 mmHg 92%
    05:00 +14°C° 0 mm 2 mps 752 mmHg 91%
    06:00 +16°C° 0 mm 2 mps 752 mmHg 81%
    07:00 +19°C° 0 mm 2 mps 752 mmHg 70%
    08:00 +21°C° 0 mm 2 mps 752 mmHg 60%
    09:00 +23°C° 0 mm 2 mps 752 mmHg 57%
    10:00 +24°C° 0 mm 3 mps 752 mmHg 54%
    11:00 +25°C° 0 mm 3 mps 752 mmHg 51%
    12:00 +23°C° 0 mm 4 mps 752 mmHg 53%
    13:00 +23°C° 0 mm 4 mps 752 mmHg 55%
    14:00 +22°C° 0 mm 4 mps 752 mmHg 58%
    15:00 +21°C° 0 mm 4 mps 752 mmHg 62%
    16:00 +20°C° 0 mm 4 mps 752 mmHg 65%
    17:00 +19°C° 0 mm 3 mps 752 mmHg 69%
    18:00 +18°C° 0 mm 3 mps 752 mmHg 76%
    19:00 +16°C° 0 mm 3 mps 753 mmHg 83%
    20:00 +14°C° 0 mm 3 mps 753 mmHg 90%
    21:00 +14°C° 0 mm 2 mps 753 mmHg 91%
    22:00 +14°C° 0 mm 2 mps 753 mmHg 92%
    23:00 +13°C° 0 mm 2 mps 753 mmHg 93%

    7 June, Sunday

    Time Temperature Precipitation Wind Pressure Humidity
    00:00 +13°C° 0 mm 2 mps 753 mmHg 93%
    01:00 +13°C° 0 mm 1 mps 753 mmHg 93%
    02:00 +13°C° 0 mm 1 mps 753 mmHg 93%
    03:00 +14°C° 0 mm 1 mps 754 mmHg 91%
    04:00 +14°C° 0 mm 1 mps 754 mmHg 88%
    05:00 +15°C° 0 mm 1 mps 754 mmHg 86%
    06:00 +16°C° 0 mm 1 mps 755 mmHg 78%
    07:00 +18°C° 0 mm 2 mps 755 mmHg 70%
    08:00 +20°C° 0 mm 2 mps 755 mmHg 62%
    09:00 +20°C° 0 mm 3 mps 755 mmHg 60%
    10:00 +21°C° 0 mm 3 mps 755 mmHg 58%
    11:00 +22°C° 0 mm 4 mps 755 mmHg 56%
    12:00 +21°C° 0 mm 4 mps 755 mmHg 57%
    13:00 +21°C° 0 mm 4 mps 755 mmHg 58%
    14:00 +21°C° 0 mm 4 mps 755 mmHg 59%
    15:00 +21°C° 0 mm 4 mps 755 mmHg 61%
    16:00 +20°C° 0 mm 3 mps 756 mmHg 62%
    17:00 +20°C° 0 mm 3 mps 756 mmHg 64%
    18:00 +18°C° 0 mm 3 mps 756 mmHg 72%
    19:00 +16°C° 0 mm 3 mps 756 mmHg 79%
    20:00 +13°C° 0 mm 3 mps 757 mmHg 87%
    21:00 +13°C° 0 mm 3 mps 757 mmHg 89%
    22:00 +12°C° 0 mm 3 mps 757 mmHg 91%
    23:00 +12°C° 0 mm 4 mps 757 mmHg 92%
    Show more